When you browse on this site, cookies collect data to enhance your experience and personalize the content and advertising you see.
Visit our Privacy Policy to learn more. By continuing to use the site, you agree to this use of cookies and data.
  • In Latvia
  • List of Countries
  • For 7 days
  • Water Temperature
  • Weather Map
  • Weather Widgets
  • user-avatar
    Login

    Hourly Weather Bali

    Today, 18 February, Tuesday

    Time Temperature Precipitation Wind Pressure Humidity
    00:00 +26°C° 0 mm 2 mps 748 mmHg 93%
    01:00 +26°C° 0 mm 2 mps 748 mmHg 91%
    02:00 +26°C° 0 mm 1 mps 747 mmHg 89%
    03:00 +26°C° 0.1 mm 1 mps 747 mmHg 88%
    04:00 +26°C° 0.1 mm 1 mps 747 mmHg 86%
    05:00 +26°C° 0.1 mm 1 mps 747 mmHg 85%
    06:00 +26°C° 0 mm 1 mps 747 mmHg 85%
    07:00 +26°C° 0 mm 1 mps 748 mmHg 85%
    08:00 +27°C° 0 mm 1 mps 748 mmHg 86%
    09:00 +29°C° 0 mm 1 mps 748 mmHg 80%
    10:00 +30°C° 0 mm 1 mps 748 mmHg 74%
    11:00 +32°C° 0 mm 1 mps 748 mmHg 68%
    12:00 +31°C° 0.6 mm 1 mps 747 mmHg 70%
    13:00 +31°C° 0.6 mm 1 mps 747 mmHg 72%
    14:00 +31°C° 0 mm 1 mps 746 mmHg 69%
    15:00 +31°C° 0.3 mm 1 mps 746 mmHg 71%
    16:00 +31°C° 0.3 mm 2 mps 746 mmHg 74%
    17:00 +31°C° 0.3 mm 2 mps 745 mmHg 76%
    18:00 +29°C° 1.4 mm 1 mps 746 mmHg 81%
    19:00 +28°C° 1.4 mm 1 mps 746 mmHg 86%
    20:00 +27°C° 1.4 mm 1 mps 747 mmHg 91%
    21:00 +27°C° 1.1 mm 1 mps 747 mmHg 90%
    22:00 +27°C° 1.1 mm 1 mps 747 mmHg 89%
    23:00 +27°C° 1.1 mm 1 mps 747 mmHg 88%

    Tomorrow, 19 February, Wednesday

    Time Temperature Precipitation Wind Pressure Humidity
    00:00 +27°C° 0.7 mm 1 mps 747 mmHg 88%
    01:00 +26°C° 0.7 mm 1 mps 747 mmHg 88%
    02:00 +26°C° 0.7 mm 1 mps 747 mmHg 88%
    03:00 +26°C° 0.4 mm 1 mps 746 mmHg 88%
    04:00 +26°C° 0.4 mm 1 mps 746 mmHg 88%
    05:00 +26°C° 0.4 mm 1 mps 746 mmHg 88%
    06:00 +26°C° 0.6 mm 1 mps 746 mmHg 87%
    07:00 +27°C° 0.6 mm 1 mps 747 mmHg 87%
    08:00 +28°C° 0.6 mm 1 mps 747 mmHg 87%
    09:00 +29°C° 0.8 mm 2 mps 747 mmHg 84%
    10:00 +30°C° 0.8 mm 2 mps 747 mmHg 81%
    11:00 +31°C° 0.8 mm 2 mps 747 mmHg 78%
    12:00 +30°C° 1 mm 2 mps 747 mmHg 81%
    13:00 +29°C° 1 mm 2 mps 746 mmHg 84%
    14:00 +29°C° 1 mm 3 mps 746 mmHg 87%
    15:00 +28°C° 0.8 mm 2 mps 746 mmHg 88%
    16:00 +28°C° 0.8 mm 2 mps 746 mmHg 89%
    17:00 +28°C° 0.8 mm 1 mps 745 mmHg 91%
    18:00 +27°C° 0.3 mm 1 mps 746 mmHg 91%
    19:00 +27°C° 0.3 mm 2 mps 746 mmHg 91%
    20:00 +27°C° 0.3 mm 2 mps 747 mmHg 92%
    21:00 +27°C° 0.2 mm 2 mps 747 mmHg 92%
    22:00 +26°C° 0.2 mm 2 mps 747 mmHg 92%
    23:00 +26°C° 0.2 mm 1 mps 747 mmHg 92%

    Day after tomorrow, 20 February, Thursday

    Time Temperature Precipitation Wind Pressure Humidity
    00:00 +26°C° 0.1 mm 1 mps 747 mmHg 91%
    01:00 +26°C° 0.1 mm 1 mps 747 mmHg 90%
    02:00 +26°C° 0.1 mm 1 mps 746 mmHg 89%
    03:00 +26°C° 0.1 mm 1 mps 746 mmHg 89%
    04:00 +26°C° 0.1 mm 1 mps 746 mmHg 88%
    05:00 +26°C° 0.1 mm 1 mps 745 mmHg 88%
    06:00 +26°C° 0 mm 1 mps 746 mmHg 87%
    07:00 +27°C° 0 mm 1 mps 747 mmHg 86%
    08:00 +27°C° 0 mm 1 mps 747 mmHg 85%
    09:00 +29°C° 0.2 mm 1 mps 747 mmHg 79%
    10:00 +30°C° 0.2 mm 2 mps 747 mmHg 73%
    11:00 +32°C° 0.2 mm 2 mps 747 mmHg 67%
    12:00 +32°C° 0.4 mm 2 mps 747 mmHg 68%
    13:00 +32°C° 0.4 mm 2 mps 746 mmHg 68%
    14:00 +32°C° 0.4 mm 2 mps 746 mmHg 69%
    15:00 +31°C° 0.7 mm 2 mps 746 mmHg 74%
    16:00 +30°C° 0.7 mm 2 mps 745 mmHg 79%
    17:00 +29°C° 0.7 mm 2 mps 745 mmHg 84%
    18:00 +28°C° 0.9 mm 2 mps 746 mmHg 86%
    19:00 +28°C° 0.9 mm 2 mps 747 mmHg 88%
    20:00 +27°C° 0.9 mm 2 mps 747 mmHg 91%
    21:00 +27°C° 0.9 mm 2 mps 748 mmHg 91%
    22:00 +27°C° 0.9 mm 2 mps 748 mmHg 92%
    23:00 +27°C° 0.9 mm 2 mps 748 mmHg 93%

    21 February, Friday

    Time Temperature Precipitation Wind Pressure Humidity
    00:00 +27°C° 1.1 mm 2 mps 748 mmHg 93%
    01:00 +26°C° 1.1 mm 2 mps 748 mmHg 93%
    02:00 +26°C° 1.1 mm 2 mps 747 mmHg 93%
    03:00 +26°C° 0.4 mm 2 mps 747 mmHg 92%
    04:00 +26°C° 0.4 mm 2 mps 747 mmHg 91%
    05:00 +26°C° 0.4 mm 1 mps 747 mmHg 91%
    06:00 +27°C° 0.1 mm 1 mps 747 mmHg 89%
    07:00 +27°C° 0.1 mm 1 mps 748 mmHg 87%
    08:00 +27°C° 0.1 mm 1 mps 748 mmHg 86%
    09:00 +29°C° 0 mm 1 mps 748 mmHg 80%
    10:00 +30°C° 0 mm 2 mps 748 mmHg 74%
    11:00 +31°C° 0 mm 2 mps 748 mmHg 68%
    12:00 +31°C° 0.4 mm 2 mps 748 mmHg 69%
    13:00 +31°C° 0.4 mm 2 mps 747 mmHg 69%
    14:00 +32°C° 0.4 mm 2 mps 747 mmHg 69%
    21:00 +27°C° 0.4 mm 1 mps 748 mmHg 89%
    22:00 +27°C° 0.4 mm 1 mps 749 mmHg 88%
    23:00 +27°C° 0.4 mm 2 mps 749 mmHg 88%

    22 February, Saturday

    Time Temperature Precipitation Wind Pressure Humidity
    00:00 +26°C° 0.4 mm 2 mps 748 mmHg 88%
    01:00 +26°C° 0.4 mm 2 mps 748 mmHg 89%
    02:00 +26°C° 0.4 mm 2 mps 747 mmHg 89%
    03:00 +26°C° 0.5 mm 2 mps 747 mmHg 89%
    04:00 +26°C° 0.5 mm 2 mps 747 mmHg 89%
    05:00 +26°C° 0.5 mm 2 mps 747 mmHg 88%
    06:00 +27°C° 0 mm 2 mps 748 mmHg 87%
    07:00 +28°C° 0 mm 2 mps 748 mmHg 85%
    08:00 +28°C° 0 mm 2 mps 749 mmHg 84%
    09:00 +30°C° 0.1 mm 2 mps 749 mmHg 78%
    10:00 +31°C° 0.1 mm 3 mps 749 mmHg 73%
    11:00 +33°C° 0.1 mm 3 mps 749 mmHg 67%
    12:00 +33°C° 0.8 mm 3 mps 748 mmHg 70%
    13:00 +31°C° 0.8 mm 2 mps 747 mmHg 72%
    14:00 +31°C° 0.8 mm 2 mps 747 mmHg 74%
    15:00 +31°C° 1.4 mm 2 mps 746 mmHg 78%
    16:00 +30°C° 1.4 mm 2 mps 746 mmHg 82%
    17:00 +29°C° 1.4 mm 2 mps 746 mmHg 86%
    18:00 +28°C° 0.9 mm 2 mps 746 mmHg 88%
    19:00 +27°C° 0.9 mm 2 mps 747 mmHg 89%
    20:00 +27°C° 0.9 mm 1 mps 747 mmHg 91%
    21:00 +26°C° 0.2 mm 2 mps 748 mmHg 91%
    22:00 +26°C° 0.2 mm 2 mps 748 mmHg 91%
    23:00 +26°C° 0.2 mm 2 mps 748 mmHg 91%

    23 February, Sunday

    Time Temperature Precipitation Wind Pressure Humidity
    00:00 +26°C° 0 mm 2 mps 748 mmHg 91%
    01:00 +26°C° 0 mm 2 mps 747 mmHg 92%
    02:00 +26°C° 0 mm 2 mps 747 mmHg 92%
    03:00 +26°C° 0 mm 2 mps 746 mmHg 93%
    04:00 +26°C° 0 mm 2 mps 746 mmHg 93%
    05:00 +26°C° 0 mm 2 mps 746 mmHg 93%
    06:00 +27°C° 0 mm 2 mps 746 mmHg 90%
    07:00 +27°C° 0 mm 2 mps 747 mmHg 88%
    08:00 +28°C° 0 mm 2 mps 747 mmHg 86%
    09:00 +30°C° 0.1 mm 2 mps 747 mmHg 78%
    10:00 +31°C° 0.1 mm 2 mps 747 mmHg 70%
    11:00 +34°C° 0.1 mm 2 mps 748 mmHg 62%
    12:00 +34°C° 0.2 mm 3 mps 747 mmHg 62%
    13:00 +34°C° 0.2 mm 3 mps 746 mmHg 62%
    14:00 +34°C° 0.2 mm 3 mps 746 mmHg 62%
    15:00 +33°C° 0.9 mm 3 mps 745 mmHg 68%
    16:00 +31°C° 0.9 mm 3 mps 745 mmHg 73%
    17:00 +30°C° 0.9 mm 4 mps 745 mmHg 78%
    18:00 +29°C° 0.9 mm 3 mps 745 mmHg 83%
    19:00 +28°C° 0.9 mm 3 mps 746 mmHg 87%
    20:00 +27°C° 0.9 mm 2 mps 746 mmHg 91%
    21:00 +27°C° 0.8 mm 2 mps 746 mmHg 91%
    22:00 +27°C° 0.8 mm 2 mps 747 mmHg 91%
    23:00 +26°C° 0.8 mm 2 mps 747 mmHg 91%
    Show more